sat.trackr.live / text

‹ back to catalog

STARLINK-34116

NORAD 63890 · 2025-095A

PAYLOAD ACTIVE UNKNOWN

§ Identity

Operator
Country
US
Launch date
2025-05-10
Launch site
AFETR
Launch vehicle
Mass (kg)
RCS (m²)

Purposes: comms

External: N2YO · Heavens-Above · Gunter

§ Orbital elements

Epoch: 2026-05-25T04:14:51.566208Z

Period
94.27 min
Inclination
42.9984°
Eccentricity
0.0001748
Mean motion
15.27589431 rev/d
Perigee alt
481.8 km
Apogee alt
484.2 km
Semi-major
6,861.2 km
B*
6.0293e-4
RAAN
104.4223°
Arg perigee
274.7900°
Mean anomaly
85.2752°
Rev number
5,948

§ Raw data

STARLINK-341161 63890U 25095A   26145.17698572  .00016371  00000+0  60293-3 0  99902 63890  42.9984 104.4223 0001748 274.7900  85.2752 15.27589431 59489

JSON: /api/v1/satellites/63890 · /tle

For live sub-satellite position, see the globe view (requires WebGL).

§ Visibility from observer

Set your observer location to see the next 7 days of passes ≥ 10°. The values pass through the URL so the page stays shareable.

No JS? Fill the form by hand. The geolocation button needs JavaScript.